This is the latest recevied weather packets stored in our database for station/object N0KWA. If no packets are shown the sender has not sent any weather packets the latest 10 day(s).
| Time | Temp. | Humidity | Pressure | Rain* | Wind** | Luminosity | Snow |
|---|---|---|---|---|---|---|---|
| 1788208781 | 27.22° C | 95% | 1018.4 hPa | 0 mm | - | 23 W/m² | - |
| 1788208476 | 27.22° C | 94% | 1018.5 hPa | 0 mm | - | 27 W/m² | - |
| 1788208174 | 27.78° C | 95% | 1018.4 hPa | 0 mm | - | 29 W/m² | - |
| 1788207870 | 27.78° C | 96% | 1018.3 hPa | 0 mm | - | 34 W/m² | - |
| 1788207563 | 27.78° C | 96% | 1018.3 hPa | 0 mm | - | 28 W/m² | - |
| 1788207262 | 27.78° C | 96% | 1018.6 hPa | 0 mm | - | 0 W/m² | - |
| 1788206958 | 27.78° C | 95% | 1018.4 hPa | 0 mm | - | 8 W/m² | - |
| 1788206664 | 28.33° C | 94% | 1018.3 hPa | 0 mm | - | 42 W/m² | - |
| 1788206348 | 28.33° C | 94% | 1018.3 hPa | 0 mm | - | 29 W/m² | - |
| 1788206044 | 28.33° C | 92% | 1018.3 hPa | 0 mm | - | 32 W/m² | - |
| 1788205739 | 28.33° C | 93% | 1018.4 hPa | 0 mm | - | 20 W/m² | - |
| 1788205434 | 28.89° C | 98% | 1018.2 hPa | 0 mm | - | 15 W/m² | - |
| 1788205133 | 28.89° C | 96% | 1018.2 hPa | 0 mm | - | 18 W/m² | - |
| 1788204829 | 28.89° C | 96% | 1018.1 hPa | 0 mm | - | 38 W/m² | - |
| 1788204524 | 28.89° C | 96% | 1018.3 hPa | 0 mm | - | 29 W/m² | - |
| 1788204224 | 29.44° C | 95% | 1018.2 hPa | 0 mm | - | 27 W/m² | - |
| 1788203920 | 29.44° C | 95% | 1018.4 hPa | 0 mm | - | 41 W/m² | - |
| 1788203616 | 29.44° C | 95% | 1018.4 hPa | 0 mm | - | 60 W/m² | - |
| 1788203312 | 28.89° C | 94% | 1018.5 hPa | 1.27 mm | - | 46 W/m² | - |
| 1788203011 | 28.89° C | 95% | 1018.5 hPa | 1.27 mm | - | 69 W/m² | - |
| 1788202711 | 28.89° C | 93% | 1018.7 hPa | 0 mm | - | 62 W/m² | - |
| 1788202407 | 28.89° C | 92% | 1018.6 hPa | 0 mm | - | 32 W/m² | - |
| 1788202105 | 28.89° C | 92% | 1018.5 hPa | 0 mm | - | 29 W/m² | - |
| 1788201802 | 28.89° C | 92% | 1018.5 hPa | 0 mm | - | 68 W/m² | - |
| 1788201502 | 28.89° C | 91% | 1018.7 hPa | 0 mm | - | 18 W/m² | - |
* Rain latest hour (hover to see other rain measurements)
** Current wind speed in m/s (hover to see current wind gust speed)